Simultaneous Nadir Overpasses (SNOs) Predictions

Prediction of SNOs between FY3D and AQUA Satellite Orbit:

Table of predicted SNOs for the next 14.0 days since TLE Epoch: 1/25/2020
Index Date (FY3D) Time (FY3D) Lat,Lon (FY3D) SZA (FY3D ) Date (AQUA) Time (AQUA) Lat,Lon (AQUA) SZA (AQUA ) Distance(km) Time Diff (sec)
1 01/25/2020 17:24:51 -69.12, -35.27 56.52 01/25/2020 17:25:04 -69.13, -35.24 56.55 1.48 13
2 01/25/2020 18:14:34 72.28, 137.25 120.24 01/25/2020 18:13:31 72.28, 137.23 120.31 1.03 63
3 01/28/2020 09:41:14 -69.18, 80.70 57.19 01/28/2020 09:41:32 -69.18, 80.70 57.21 0.09 18
4 01/28/2020 10:30:56 72.38,-106.66 119.51 01/28/2020 10:29:58 72.37,-106.72 119.59 2.42 58
5 01/31/2020 01:57:36 -69.34,-163.17 58.01 01/31/2020 01:57:59 -69.33,-163.21 58.02 1.73 23
6 01/31/2020 02:47:34 71.70, 7.96 119.56 01/31/2020 02:46:40 71.71, 7.99 119.60 1.17 54
7 02/02/2020 18:14:16 -68.54, -48.36 57.90 02/02/2020 18:14:43 -68.54, -48.34 57.94 1.02 27
8 02/02/2020 19:03:56 71.85, 124.14 118.69 02/02/2020 19:03:07 71.85, 124.11 118.75 0.93 49
9 02/05/2020 10:30:35 -68.86, 67.96 58.97 02/05/2020 10:31:07 -68.85, 67.93 58.99 1.53 32
10 02/05/2020 11:20:32 71.28,-121.00 118.55 02/05/2020 11:19:47 71.28,-120.95 118.58 1.93 45




NCC Satellite Simultaneous Nadir Overpasses (SNOs) Prediction Service
